Other Public Products
Issued by NWS Grand Forks, ND

Home | Current Version | Previous Version | Graphics & Text | Print | Product List | Glossary On
Versions: 1 2 3 4 5 6 7 8 9 10 11 12 13 14 15 16 17 18 19 20 21 22 23 24 25 26 27 28 29 30 31 32 33 34 35 36 37 38 39 40 41 42 43 44 45 46 47 48 49 50
000
FPUS83 KFGF 251110
OPUFGF
PRAIRIE TO PINES WEATHER ROUNDUP
NATIONAL WEATHER SERVICE EASTERN NORTH DAKOTA/GRAND FORKS ND
600 AM CDT FRI JUL 25 2014

 **SATELLITE DATA USED TO AUGMENT SKY COVER AT AUTOMATED STATIONS**
 *****  WEATHER ACROSS EASTERN NORTH DAKOTA  *****

CITY           SKY/WX    TMP DP  RH WIND       PRES   REMARKS
GRAND FORKS    MOCLDY    65  62  90 SE8       29.69F
GRAND FORKS AF MOCLDY    65  65  99 S13       29.68F
GRAND CITY NWS   N/A     64 N/A N/A SE13        N/A
BUXTON         NOT AVBL
DEVILS LAKE    MOCLDY    66  59  77 S16       29.69R
FARGO          MOCLDY    65  61  87 E6        29.74R
WAHPETON ARPT  CLOUDY    63  59  88 SE5       29.75F
$$

 *****  WEATHER ACROSS CENTRAL AND WESTERN NORTH DAKOTA  *****

CITY           SKY/WX    TMP DP  RH WIND       PRES   REMARKS
JAMESTOWN      PTCLDY    63  61  93 E3        29.74F
BISMARCK       CLOUDY    67  64  90 W5        29.80R
MINOT          MOCLDY    63  54  72 W10       29.78R
MINOT AFB      PTCLDY    61  58  92 NW10      29.77R
GARRISON         N/A     65  59  81 NW15      29.81R
WILLISTON      CLEAR     54  50  86 S7        29.87R
DICKINSON      CLEAR     51  47  86 W6        29.88R
HETTINGER      CLEAR     53  46  77 W5        29.90R
$$

 *****  OTHER OBSERVATIONS NORTHEAST NORTH DAKOTA  *****

CITY           SKY/WX    TMP DP  RH WIND       PRES   REMARKS
WALHALLA         N/A     64  64 100 W3          N/A
LANGDON        PTSUNNY   64  63  94 NW8       29.74R
CAVALIER       FAIR      66  63  88 S3        29.69R
GRAFTON        FAIR      64  64 100 S13       29.65F
CANDO          FAIR      63  63 100 W7        29.74R
FORT TOTTEN      N/A     63  62  95 S10       29.95
ROLLA          CLOUDY    64  64 100 SW5       29.78R
RUGBY          CLOUDY    66  66 100 W8        29.76R
 ***** THE ABOVE OBSERVATIONS ARE NON NWS ARE NOT QUALITY
        CONTROLLED AND MAY MIS-REPORT RAIN FOR SNOW...
$$

 *****  OTHER OBSERVATIONS SOUTHEAST NORTH DAKOTA *****

CITY           SKY/WX    TMP DP  RH WIND       PRES   REMARKS
COOPERSTOWN    NOT AVBL
VALLEY CITY    PTSUNNY   63  63 100 NE3       29.73F
OAKES          NOT AVBL
GWINNER        CLOUDY    64  64 100 NE8       29.74R
SHEYENNE NWR     N/A     63  62  97 E5        29.95
BUFFALO        NOT AVBL
WYNDMERE       NOT AVBL
 ***** THE ABOVE OBSERVATIONS ARE NON NWS ARE NOT QUALITY
       CONTROLLED AND MAY MIS-REPORT RAIN FOR SNOW...
$$

  *****  WEATHER ACROSS NORTHERN MINNESOTA  *****

CITY           SKY/WX    TMP DP  RH WIND       PRES   REMARKS
FLAG ISLAND    CLEAR     66  61  82 SE5       29.75F
WARROAD        CLEAR     63  57  82 SE7       29.75S
ROSEAU         CLEAR     61  55  82 CALM      29.75S
HALLOCK        CLOUDY    64  63  94 SE14      29.65F
THF RVR FALLS  CLOUDY    64  61  88 S7        29.73F
HALSTAD          N/A     64  61  88 S9          N/A
FOSSTON        MOCLDY    63  57  82 S7        29.74F
BAUDETTE       PTCLDY    61  58  90 SE6       29.77F
WASKISH        PTCLDY    61  57  88 CALM      29.78F
CROOKSTON      MOCLDY    66  61  82 SW7       29.75R
$$
  *****  WEATHER ACROSS CENTRAL AND WEST MINNESOTA  *****

CITY           SKY/WX    TMP DP  RH WIND       PRES   REMARKS
BEMIDJI        CLOUDY    65  61  87 S6        29.78F
PARK RAPIDS    CLOUDY    63  60  90 E7        29.76F
WADENA         CLOUDY    61  57  88 E3        29.76F
DETROIT LAKES  MOCLDY    64  61  88 S7        29.77R
MOORHEAD       MOCLDY    66  66 100 SE3       29.76S
FERGUS FALLS   CLOUDY    64  61  88 SE7       29.77R
ELBOW LAKE     PTSUNNY   63  62  96 SE6       29.76F
MORRIS MN      CLOUDY    64  63  94 E10       29.74R
STAPLES        CLOUDY    63  59  88 E3        29.77F
WHEATON        NOT AVBL
$$
  *****  WEATHER ELSEWHERE ACROSS MINNESOTA  *****

CITY           SKY/WX    TMP DP  RH WIND       PRES   REMARKS
DULUTH         CLOUDY    62  56  80 SE8       29.84F
INTRNTL FALLS  PTCLDY    58  57  97 SE6       29.80F
ELY            LGT RAIN  61  57  88 S5        29.85S
CLOQUET        CLOUDY    61  57  88 CALM      29.86R
BRAINERD       CLOUDY    62  60  93 VRB3      29.80F
HIBBING        CLOUDY    62  58  86 CALM      29.85R
ALEXANDRIA     CLOUDY    63  62  97 S8        29.79R
SAINT CLOUD    RAIN      65  61  87 SE14G20   29.72F
MINNEAPOLIS    TSTM      64  63  96 SE14      29.82F FOG
$$

  *****  WEATHER ACROSS SOUTH DAKOTA  *****

CITY           SKY/WX    TMP DP  RH WIND       PRES   REMARKS
SIOUX FALLS    CLOUDY    66  61  84 SE20G29   29.81R THUNDER
BROOKINGS      NOT AVBL
WATERTOWN      CLOUDY    65  62  90 S14G26    29.71F
HURON          PTCLDY    68  63  84 N6        29.72R
SISSETON         N/A     63  63 100 SE7       29.68S
ABERDEEN       PTCLDY    64  64 100 SW3       29.69R
MITCHELL       PTCLDY    68  63  84 SE15      29.71F
PIERRE         CLEAR     70  66  87 N13       29.73R
MOBRIDGE       PTCLDY    65  64  97 NW6       29.76R
RAPID CITY     CLEAR     64  37  36 NW20      29.93R
$$

  *****  SOME WEATHER IN NEARBY STATES *****

CITY           SKY/WX    TMP DP  RH WIND       PRES   REMARKS
GLASGOW MT     CLEAR     53  38  56 S3        29.89R
GREAT FALLS MT CLEAR     55  36  48 SW28      29.93F
CHEYENNE WY    MOCLDY    72  45  37 W22       30.11R
SCOTTSBLUFF NE CLEAR     66  53  63 W9        29.98R
OMAHA NE       MOCLDY    77  65  66 SE13      29.77R
DES MOINES IA  CLOUDY    66  59  78 E12       29.98R
DAVENPORT IA   LGT RAIN  64  55  72 CALM      30.09R
CHICAGO IL     MOCLDY    59  48  67 SW3       30.03F
EAU CLAIRE WI  CLOUDY    66  59  78 S8        29.92R
LA CROSSE WI   CLOUDY    69  57  65 S12       29.95S
$$

  *****  SOME NATIONAL WEATHER *****

CITY           SKY/WX    TMP DP  RH WIND       PRES   REMARKS
LA GUARDIA NY  MOSUNNY   67  54  63 N8        29.98R
RALEIGH NC     FOG       67  65  93 CALM      30.04R VSB 1/2
ATLANTA GA     PTCLDY    70  68  93 CALM      30.02R
NEW ORLEANS LA MOCLDY    77  74  90 SW3       30.01R
OKLAHOMA CITY  PTCLDY    72  67  84 S8        29.99S
ALBUQUERQUE NM MOCLDY    73  42  32 SE5       30.20R
SALT LAKE CITY PTCLDY    67  42  40 CALM      30.02R
LOS ANGELES CA PTCLDY    70  63  78 E5        29.86S
BOISE ID       CLEAR     54  39  57 SW5       30.06R
SEATTLE WA     MOCLDY    55  52  89 CALM      30.19F
$$

*** WEATHER ACROSS MANITOBA...SASKATCHEWAN AND ONTARIO ***
                ***ONTARIO***

CITY           SKY/WX    TMP DP  RH WIND       PRES   REMARKS
GERALDTON      PTCLDY    55  52  88 W2        29.82F
THUNDER BAY    PTCLDY    50  50 100 NW3       29.87R
SIOUX LOOKOUT  PTCLDY    48  48 100 VRB2      29.82F
TORONTO        CLEAR     57  46  67 W5        30.06R
BIG TROUT LK   CLEAR     52  46  82 NE5       29.76F
PICKLE LAKE    MOCLDY    59  52  77 W7        29.79
DRYDEN         CLEAR     59  57  94 E5        29.81F
KENORA         MOCLDY    61  57  88 SE5       29.79F
$$
                *** MANITOBA***

CITY           SKY/WX    TMP DP  RH WIND       PRES   REMARKS
BRANDON        CLOUDY    63  61  94 CALM      29.71S
DAUPHIN        MOCLDY    61  59  94 CALM      29.69S FOG
ISLAND LAKE    PTCLDY    61  57  88 NW3       29.76S
PILOT MOUND      N/A    N/A N/A N/A S7          N/A
THE PAS        CLOUDY    64  64 100 SE8       29.65R
THOMPSON       PTCLDY    57  55  94 E10       29.77S
WINNIPEG       MOCLDY    64  59  82 SE8       29.72S
LYNN LAKE      CLEAR     55  48  76 E3        29.75S
CHURCHILL      PTCLDY    54  48  82 N10       29.87S
GILLAM         MOCLDY    50  48  93 E3        29.83S
$$
                ***SASKATCHEWAN***

CITY           SKY/WX    TMP DP  RH WIND       PRES   REMARKS
ESTEVAN        PTCLDY    54  52  94 SW8       29.82R
KINDERSLEY     PTCLDY    46  43  87 SW6       29.63S
LLOYDMINSTER   MOCLDY    54  52  94 W7        29.48S FOG
PRINCE ALBERT  PTCLDY    54  52  94 S3        29.57F
REGINA         CLEAR     52  48  87 SW12      29.75F



USA.gov is the U.S. government's official web portal to all federal, state and local government web resources and services.